Showing default

USA 164, 27168

Orbit data source: Space-Track

USA 164, 27168 is a payload satellite owned by USAF SMC (US) in GEO that was launched on Mon, 14 Jan 2002 UTC via a TITAN 401B/CENTAUR launch vehicle from the Air Force Eastern Test Range (AFETR). Payload-class satellites include a variety of spacecraft equipped with specific instruments for various scientific and technological missions. These include communications satellites like Starlink; space stations such as the ISS; scientific satellites like the Hubble; Earth observation satellites from companies like Planet Labs, Umbra, and HawkEye 360; GPS; miniature CubeSats for education and research; and military/defense satellites.

Not visible in the next 10 days
Identifier
27168, 2002-001A
Orbit
GEO
Country
Flag of USUS
Related business
Manufacturer
LMMS/Sunnyvale
Mission
Operational Defense Communications
Bus & Motor
MILSTAR, AOCS
Mass
4,500 kg wet, ~4,200 kg dry
Launch date (UTC)
2002-01-14 (24 years ago)
Launch vehicle
TITAN 401B/CENTAUR
Launch site
Air Force Eastern Test Range (AFETR)
Object type
Payload
Rocket body
Debris
Shape & HBR
Cyl + 1 Truss + 1 Ant, 17.5 m
Radar Cross Section
74.603 m²

Expand to show TLE details & history
Last TLE update: 16 hours ago

TLE from 16 hours ago
0 USA 164
1 27168U 02001A   25260.01570860  .00000083  00000-0  00000-0 0  9990
2 27168  10.8522  23.4801 0096886   5.7599 351.5585  1.00270337 30215
Epoch: 2025-09-17T00:22Z
TLE epoch observation values (Epoch: 2025-09-17T00:22:37.223Z)
Latitude
-0.54389°
Longitude
18.82724°
Altitude
35,382.03 km
Speed
3.104 km/s
True Right ascension
01h 22m 43s
True Declination
0° 32' 36"
Sunlit
Object was in daylight at epoch
Visualization orbit readout
Latitude
Unknown
Longitude
Unknown
Altitude
Unknown
Speed
Unknown
Apparent Right ascension
Unknown
Apparent Declination
Unknown
Sunlit
N/A
Visualization observer readout
Local Sidereal Time
09:37:01
Azimuth
Unknown
Elevation
Unknown
Doppler factor
Unknown
Orbital elements
Apogee altitude
36,196.547 km
Perigee altitude
35,379.485 km
Semi-major axis
42,166.153 km
Eccentricity
0.00969
Inclination
10.8522°
RAAN
23.4801°
Arg. of periapsis
5.7599°
True anomaly
351.39354°
Mean anomaly
351.5585°
Eccentric anomaly
351.47622°
Mean motion
0.25067 °/min
Orbital period
1,436.17 mins
BSTAR
0
Loading maneuver chart data...
Computing Atmospheric mass density...
Loading historical data...
Loading historical data...
Loading historical data...
Loading historical data...
Loading historical data...
Loading historical data...
Loading historical data...
Other satellites on launch #1 in the year 2002 (2002-01-14 UTC)

Documentation

Showing up to 5 results
|